Location: Arran
(51.9410°N, 101.7372°W)
Time: 22:36:12
(UTC+00:00)

BlueWalker 3 - Pass Details

Date: 26 November 2022
Orbit: 498 x 517 km, 53.2° (Epoch: 08 February)

Event Time Altitude Azimuth Distance (km) Brightness Sun altitude
Rises 00:19:45 0° 221° (SW) 2,623 6.6 -14.2°
Reaches altitude 10° 00:22:03 10° 213° (SSW) 1,735 5.4 -14.5°
Maximum altitude 00:25:39 35° 146° (SSE) 841 2.9 -15.0°
Enters shadow 00:27:06 26° 104° (ESE) 1,040 3.0 -15.3°
